Weather History for KPPF - December, 2011

Change the Weather History Date:

Friday, December 23, 2011

  Actual Average Record
Temperature  
Mean Temperature 29 °F -  
Max Temperature 37 °F 40 °F 66 °F (1955)
Min Temperature 21 °F 22 °F -17 °F (1989)
Degree Days  
Heating Degree Days 36    
Moisture  
Dew Point 19 °F    
Average Humidity 71    
Maximum Humidity 85    
Minimum Humidity 47    
Precipitation  
Precipitation 0.00 in - - ()
Sea Level Pressure  
Sea Level Pressure 30.46 in    
Wind  
Wind Speed 5 mph (NNW)    
Max Wind Speed 10 mph    
Max Gust Speed 17 mph    
Visibility 10 miles    
Events      
Averages and records for this station are not official NWS values.
T = Trace of Precipitation, MM = Missing Value Source: NWS Daily Summary

Daily Weather History Graph

Daily Weather History Graph

Search for Another Location

Airport or City:

Trip Planner

Search our weather history database for the weather conditions in past years. The results will help you decide how hot, cold, wet, or windy it might be!

Date:

Astronomy

Dec. 23, 2011 Rise Set
Actual Time 7:33 AM CST 5:08 PM CST
Civil Twilight 7:04 AM CST 5:38 PM CST
Nautical Twilight 6:31 AM CST 6:10 PM CST
Astronomical Twilight 5:59 AM CST 6:42 PM CST
Moon 6:23 AM CST (12/23) 4:18 PM CST (12/23)
Length of Visible Light 10h 33m
Length of Day
9h 35m
Waning Crescent, 1% of the Moon is Illuminated
Dec 23
Waning Crescent
Dec 24
New
Jan 1
First Quarter
Jan 9
Full
Jan 16
Last Quarter

Hourly Weather History & Observations

Time (CST) Temp. Windchill Dew Point Humidity Pressure Visibility Wind Dir Wind Speed Gust Speed Precip Events Conditions
12:52 AM 30.9 °F 22.2 °F 19.9 °F 64% 30.43 in 10.0 mi NNE 10.4 mph 17.3 mph N/A   Overcast
1:52 AM 30.0 °F 21.7 °F 19.9 °F 66% 30.44 in 10.0 mi North 9.2 mph - N/A   Overcast
2:52 AM 28.0 °F 21.7 °F 19.9 °F 72% 30.46 in 10.0 mi North 5.8 mph - N/A   Partly Cloudy
3:52 AM 27.0 °F 19.5 °F 19.0 °F 72% 30.47 in 10.0 mi North 6.9 mph - N/A   Clear
4:52 AM 25.0 °F 20.7 °F 19.0 °F 78% 30.47 in 10.0 mi North 3.5 mph - N/A   Clear
6:52 AM 24.1 °F 17.0 °F 19.0 °F 81% 30.49 in 10.0 mi North 5.8 mph - N/A   Clear
7:52 AM 24.1 °F 18.2 °F 19.0 °F 81% 30.50 in 10.0 mi North 4.6 mph - N/A   Clear
8:52 AM 27.0 °F 20.5 °F 19.9 °F 75% 30.52 in 10.0 mi NNW 5.8 mph - N/A   Clear
9:52 AM 28.9 °F 25.2 °F 19.9 °F 69% 30.54 in 10.0 mi Variable 3.5 mph - N/A   Clear
10:52 AM 30.9 °F - 19.9 °F 64% 30.53 in 10.0 mi Calm Calm - N/A   Clear
12:52 PM 34.0 °F 28.8 °F 19.9 °F 56% 30.45 in 10.0 mi West 5.8 mph - N/A   Clear
1:52 PM 36.0 °F 32.1 °F 19.9 °F 52% 30.43 in 10.0 mi NNW 4.6 mph - N/A   Clear
2:52 PM 37.9 °F 35.5 °F 19.9 °F 48% 30.42 in 10.0 mi WNW 3.5 mph - N/A   Clear
3:52 PM 37.9 °F 35.5 °F 19.0 °F 47% 30.43 in 10.0 mi West 3.5 mph - N/A   Clear
4:52 PM 35.1 °F - 21.0 °F 57% 30.43 in 10.0 mi Calm Calm - N/A   Clear
5:52 PM 28.9 °F - 21.0 °F 72% 30.44 in 10.0 mi Calm Calm - N/A   Clear
6:52 PM 26.1 °F - 19.9 °F 78% 30.45 in 10.0 mi Calm Calm - N/A   Clear
7:52 PM 24.1 °F - 19.9 °F 84% 30.45 in 10.0 mi Calm Calm - N/A   Clear
8:52 PM 24.1 °F - 19.0 °F 81% 30.44 in 10.0 mi Calm Calm - N/A   Clear
9:52 PM 21.9 °F - 18.0 °F 85% 30.43 in 10.0 mi Calm Calm - N/A   Clear
10:52 PM 21.9 °F - 18.0 °F 85% 30.43 in 10.0 mi Calm Calm - N/A   Clear
11:52 PM 21.9 °F 15.7 °F 18.0 °F 85% 30.42 in 10.0 mi South 4.6 mph - N/A   Clear